Regional Weather Roundup
Issued by NWS

Home | Current Version | Previous Version | Graphics & Text | Print | Product List | Glossary On
Versions: 1 2 3 4 5 6 7 8 9 10 11 12 13 14 15 16 17 18 19 20 21 22 23 24 25 26 27 28 29 30 31 32 33 34 35 36 37 38 39 40 41 42 43 44 45 46 47 48 49 50
000
ASUS43 KIND 041859
RWRIN

WEATHER ROUNDUP FOR INDIANA
NATIONAL WEATHER SERVICE INDIANAPOLIS IN
300 PM EDT MON MAY 04 2015

NOTE: "FAIR" INDICATES FEW OR NO CLOUDS BELOW 12,000 FEET WITH NO
SIGNIFICANT WEATHER AND/OR OBSTRUCTIONS TO VISIBILITY.

* - STATION DOES NOT REPORT WEATHER SUCH AS PRECIPITATION OR FOG.

+ - STATION NOT QUALITY CONTROLLED BY THE NATIONAL WEATHER SERVICE.
    USE DATA WITH CAUTION...ESPECIALLY DEWPOINT AND RELATIVE
    HUMIDITY OBSERVATIONS.

INZ001>003-010>013-019-020-042000-
NORTHWEST INDIANA

CITY           SKY/WX    TMP DP  RH WIND       PRES   REMARKS
GARY /AIRPORT/ CLOUDY    73 N/A N/A W8        30.12R

$$

LMZ046-743>745-042000-
SOUTHERN LAKE MICHIGAN

STATION/POSITION TIME  TEMP    WIND        PRES    WAVE
                       AIR SEA DIR/SP/G            HT
                 (UTC) (F)     (DEG/KT/KT) (MB)    (FT)
BURNS HARBOR     1800   62      10/  4/  7 1020.3S
MICHIGAN CITY    1800   60     240/  4/  5   N/A
5NW MICH CITY    1800   53 51   10/  8/ 10   N/A     0

$$

INZ004-005-014>016-021>024-042000-
NORTH CENTRAL INDIANA

CITY           SKY/WX    TMP DP  RH WIND       PRES   REMARKS
GOSHEN         CLOUDY    69  61  75 SW13      30.13R
SOUTH BEND     CLOUDY    70  59  68 W10       30.13R

$$

INZ006>009-017-018-025>027-042000-
NORTHEAST INDIANA

CITY           SKY/WX    TMP DP  RH WIND       PRES   REMARKS
ANGOLA *+      PTSUNNY   73  61  64 SW16      30.12R
FORT WAYNE     CLOUDY    65  60  84 SW12      30.16R

$$

INZ028-029-035-036-043>045-051>053-042000-
WEST CENTRAL INDIANA

CITY           SKY/WX    TMP DP  RH WIND       PRES   REMARKS
GREENCASTLE +  CLOUDY    72  55  56 SW8       30.16R
LAFAYETTE      CLOUDY    68  60  75 NW3       30.15R
TERRE HAUTE    PTSUNNY   77  59  53 SW10      30.14S

$$

INZ030>032-037>040-046>048-054>057-064-065-042000-
CENTRAL INDIANA

CITY           SKY/WX    TMP DP  RH WIND       PRES   REMARKS
ANDERSON       PTSUNNY   66  54  63 S7        30.17R
COLUMBUS       CLOUDY    70  55  60 S8        30.17
GREENWOOD *+   CLOUDY    72  57  60 SW5       30.17R
INDIANAPOLIS   CLOUDY    69  60  73 S7        30.15R
-EAGLE CREEK   CLOUDY    67  59  75 S9        30.15S
KOKOMO *+      PTSUNNY   68  61  77 SW8       30.16S
MT COMFORT *+  CLOUDY    68  52  56 SW7       30.17R
SHELBYVILLE    CLOUDY    74  58  57 S10       30.16R

$$

INZ033-034-041-042-049-050-058-059-042000-
EAST CENTRAL INDIANA

CITY           SKY/WX    TMP DP  RH WIND       PRES   REMARKS
MUNCIE         CLOUDY    70  58  65 SW12G17   30.15R

$$

INZ060-061-067>069-081>083-085>088-042000-
SOUTHWEST INDIANA

CITY           SKY/WX    TMP DP  RH WIND       PRES   REMARKS
EVANSVILLE     PTSUNNY   83  56  39 SW16      30.16S
HUNTINGBURG *+ PTSUNNY   82  59  44 SW12G21   30.16S

$$

INZ062-063-066-070>080-084-089>092-042000-
SOUTH CENTRAL AND SOUTHEAST INDIANA

CITY           SKY/WX    TMP DP  RH WIND       PRES   REMARKS
BLOOMINGTON    CLOUDY    76  57  51 S8        30.17R
MADISON *+     PTSUNNY   81  50  34 W3        30.19F
SEYMOUR +      CLOUDY    79  55  44 CALM      30.16F

$$



USA.gov is the U.S. government's official web portal to all federal, state and local government web resources and services.